Time,TemperatureF,DewpointF,PressureIn,WindDirection,WindDirectionDegrees,WindSpeedMPH,WindSpeedGustMPH,Humidity,HourlyPrecipIn,Conditions,Clouds,dailyrainin,SoftwareType,DateUTC
2013-07-10 00:01:00,68.0,-36.3,30.17,SSE,157,0.0,4.0,1,0.00,,,0.00,Weather View 32 v70,2013-07-10 04:01:00,
2013-07-10 00:06:00,68.0,-36.3,30.17,SE,135,0.0,4.0,1,0.00,,,0.00,Weather View 32 v70,2013-07-10 04:06:00,
2013-07-10 00:11:00,68.0,-36.3,30.17,SE,135,0.0,4.0,1,0.00,,,0.00,Weather View 32 v70,2013-07-10 04:11:00,
2013-07-10 00:16:00,68.0,-36.3,30.17,SE,135,0.0,4.0,1,0.00,,,0.00,Weather View 32 v70,2013-07-10 04:16:00,
2013-07-10 00:21:00,68.0,-36.3,30.17,NNE,22,0.0,4.0,1,0.00,,,0.00,Weather View 32 v70,2013-07-10 04:21:00,
2013-07-10 00:26:00,68.0,-36.3,30.17,North,360,0.0,4.0,1,0.00,,,0.00,Weather View 32 v70,2013-07-10 04:26:00,
2013-07-10 00:31:00,68.0,-36.3,30.17,North,360,1.0,4.0,1,0.00,,,0.00,Weather View 32 v70,2013-07-10 04:31:00,
2013-07-10 00:36:00,68.0,-36.3,30.17,North,360,0.0,4.0,1,0.00,,,0.00,Weather View 32 v70,2013-07-10 04:36:00,
2013-07-10 00:41:00,68.0,-36.3,30.17,NNE,22,0.0,3.0,1,0.00,,,0.00,Weather View 32 v70,2013-07-10 04:41:00,
2013-07-10 00:46:00,68.0,-36.3,30.17,South,180,0.0,3.0,1,0.00,,,0.00,Weather View 32 v70,2013-07-10 04:46:00,
2013-07-10 00:51:00,68.0,-36.3,30.16,East,90,0.0,4.0,1,0.00,,,0.00,Weather View 32 v70,2013-07-10 04:51:00,
2013-07-10 00:56:00,68.0,-36.3,30.16,South,180,0.0,4.0,1,0.00,,,0.00,Weather View 32 v70,2013-07-10 04:56:00,
2013-07-10 01:01:00,68.0,-36.3,30.16,South,180,0.0,4.0,1,0.00,,,0.00,Weather View 32 v70,2013-07-10 05:01:00,
2013-07-10 01:06:00,68.0,-36.3,30.16,South,180,0.0,4.0,1,0.00,,,0.00,Weather View 32 v70,2013-07-10 05:06:00,
2013-07-10 01:11:00,68.0,-36.3,30.16,North,360,0.0,4.0,1,0.00,,,0.00,Weather View 32 v70,2013-07-10 05:11:00,
2013-07-10 01:16:00,68.0,-36.3,30.15,South,180,0.0,4.0,1,0.00,,,0.00,Weather View 32 v70,2013-07-10 05:16:00,
2013-07-10 01:21:00,68.0,-36.3,30.15,SSW,202,0.0,4.0,1,0.00,,,0.00,Weather View 32 v70,2013-07-10 05:21:00,
2013-07-10 01:26:00,68.0,-36.3,30.15,North,360,0.0,4.0,1,0.00,,,0.00,Weather View 32 v70,2013-07-10 05:26:00,
2013-07-10 01:31:00,68.0,-36.3,30.15,North,360,0.0,4.0,1,0.00,,,0.00,Weather View 32 v70,2013-07-10 05:31:00,
2013-07-10 01:36:00,68.0,-36.3,30.15,North,360,0.0,4.0,1,0.00,,,0.00,Weather View 32 v70,2013-07-10 05:36:00,
2013-07-10 01:41:00,68.0,-36.3,30.15,North,360,0.0,4.0,1,0.00,,,0.00,Weather View 32 v70,2013-07-10 05:41:00,
2013-07-10 01:47:00,68.0,-36.3,30.15,South,180,0.0,4.0,1,0.00,,,0.00,Weather View 32 v70,2013-07-10 05:47:00,
2013-07-10 01:52:00,68.0,-36.3,30.15,South,180,0.0,4.0,1,0.00,,,0.00,Weather View 32 v70,2013-07-10 05:52:00,
2013-07-10 01:57:00,68.0,-36.3,30.15,ENE,67,1.0,5.0,1,0.00,,,0.00,Weather View 32 v70,2013-07-10 05:57:00,
2013-07-10 02:02:00,67.0,-36.9,30.15,SSE,157,0.0,5.0,1,0.00,,,0.00,Weather View 32 v70,2013-07-10 06:02:00,
2013-07-10 02:07:00,67.0,-36.9,30.14,ENE,67,0.0,5.0,1,0.00,,,0.00,Weather View 32 v70,2013-07-10 06:07:00,
2013-07-10 02:12:00,67.0,-36.9,30.14,NE,45,3.0,5.0,1,0.00,,,0.00,Weather View 32 v70,2013-07-10 06:12:00,
2013-07-10 02:17:00,67.0,-36.9,30.14,NNE,22,0.0,5.0,1,0.00,,,0.00,Weather View 32 v70,2013-07-10 06:17:00,
2013-07-10 02:22:00,67.0,-36.9,30.14,NNE,22,0.0,5.0,1,0.00,,,0.00,Weather View 32 v70,2013-07-10 06:22:00,
2013-07-10 02:27:00,67.0,-36.9,30.14,ESE,112,0.0,5.0,1,0.00,,,0.00,Weather View 32 v70,2013-07-10 06:27:00,
2013-07-10 02:32:00,67.0,-36.9,30.14,ESE,112,0.0,5.0,1,0.00,,,0.00,Weather View 32 v70,2013-07-10 06:32:00,
2013-07-10 02:37:00,67.0,-36.9,30.13,ENE,67,0.0,5.0,1,0.00,,,0.00,Weather View 32 v70,2013-07-10 06:37:00,
2013-07-10 02:42:00,67.0,-36.9,30.13,NNE,22,0.0,5.0,1,0.00,,,0.00,Weather View 32 v70,2013-07-10 06:42:00,
2013-07-10 02:47:00,67.0,-36.9,30.13,NNE,22,2.0,5.0,1,0.00,,,0.00,Weather View 32 v70,2013-07-10 06:47:00,
2013-07-10 02:52:00,67.0,-36.9,30.13,NE,45,0.0,5.0,1,0.00,,,0.00,Weather View 32 v70,2013-07-10 06:52:00,
2013-07-10 02:57:00,67.0,-36.9,30.13,NNW,337,0.0,5.0,1,0.00,,,0.00,Weather View 32 v70,2013-07-10 06:57:00,
2013-07-10 03:02:00,67.0,-36.9,30.13,NNW,337,0.0,5.0,1,0.00,,,0.00,Weather View 32 v70,2013-07-10 07:02:00,
2013-07-10 03:07:00,67.0,-36.9,30.12,NNE,22,0.0,5.0,1,0.00,,,0.00,Weather View 32 v70,2013-07-10 07:07:00,
2013-07-10 03:12:00,67.0,-36.9,30.12,NNE,22,0.0,5.0,1,0.00,,,0.00,Weather View 32 v70,2013-07-10 07:12:00,
2013-07-10 03:17:00,67.0,-36.9,30.12,NNE,22,0.0,5.0,1,0.00,,,0.00,Weather View 32 v70,2013-07-10 07:17:00,
2013-07-10 03:22:00,67.0,-36.9,30.12,SSE,157,0.0,5.0,1,0.00,,,0.00,Weather View 32 v70,2013-07-10 07:22:00,
2013-07-10 03:27:00,67.0,-36.9,30.12,SSE,157,0.0,5.0,1,0.00,,,0.00,Weather View 32 v70,2013-07-10 07:27:00,
2013-07-10 03:32:00,67.0,-36.9,30.12,NE,45,2.0,5.0,1,0.00,,,0.00,Weather View 32 v70,2013-07-10 07:32:00,
2013-07-10 03:37:00,67.0,-36.9,30.11,NE,45,0.0,5.0,1,0.00,,,0.00,Weather View 32 v70,2013-07-10 07:37:00,
2013-07-10 03:42:00,67.0,-36.9,30.11,North,360,2.0,5.0,1,0.00,,,0.00,Weather View 32 v70,2013-07-10 07:42:00,
2013-07-10 03:47:00,67.0,-36.9,30.11,North,360,0.0,5.0,1,0.00,,,0.00,Weather View 32 v70,2013-07-10 07:47:00,
2013-07-10 03:52:00,67.0,-36.9,30.11,SE,135,0.0,5.0,1,0.00,,,0.00,Weather View 32 v70,2013-07-10 07:52:00,
2013-07-10 03:57:00,67.0,-36.9,30.11,South,180,0.0,5.0,1,0.00,,,0.00,Weather View 32 v70,2013-07-10 07:57:00,
2013-07-10 04:02:00,67.0,-36.9,30.11,SSW,202,0.0,5.0,1,0.00,,,0.00,Weather View 32 v70,2013-07-10 08:02:00,
2013-07-10 04:07:00,67.0,-36.9,30.11,SSW,202,0.0,5.0,1,0.00,,,0.00,Weather View 32 v70,2013-07-10 08:07:00,
2013-07-10 04:12:00,67.0,-36.9,30.11,SSW,202,0.0,5.0,1,0.00,,,0.00,Weather View 32 v70,2013-07-10 08:12:00,
2013-07-10 04:17:00,67.0,-36.9,30.12,North,360,0.0,5.0,1,0.00,,,0.00,Weather View 32 v70,2013-07-10 08:17:00,
2013-07-10 04:22:00,67.0,-36.9,30.12,WNW,292,0.0,5.0,1,0.00,,,0.00,Weather View 32 v70,2013-07-10 08:22:00,
2013-07-10 04:27:00,67.0,-36.9,30.11,WNW,292,0.0,5.0,1,0.00,,,0.00,Weather View 32 v70,2013-07-10 08:27:00,
2013-07-10 04:32:00,67.0,-36.9,30.11,WNW,292,0.0,4.0,1,0.00,,,0.00,Weather View 32 v70,2013-07-10 08:32:00,
2013-07-10 04:37:00,67.0,-36.9,30.11,NE,45,3.0,4.0,1,0.00,,,0.00,Weather View 32 v70,2013-07-10 08:37:00,
2013-07-10 04:43:00,67.0,-36.9,30.11,North,360,0.0,4.0,1,0.00,,,0.00,Weather View 32 v70,2013-07-10 08:43:00,
2013-07-10 04:48:00,67.0,-36.9,30.11,North,360,0.0,4.0,1,0.00,,,0.00,Weather View 32 v70,2013-07-10 08:48:00,
2013-07-10 04:53:00,67.0,-36.9,30.11,ENE,67,2.0,5.0,1,0.00,,,0.00,Weather View 32 v70,2013-07-10 08:53:00,
2013-07-10 04:58:00,67.0,-36.9,30.11,SSW,202,1.0,5.0,1,0.00,,,0.00,Weather View 32 v70,2013-07-10 08:58:00,
2013-07-10 05:03:00,67.0,-36.9,30.11,ESE,112,0.0,5.0,1,0.00,,,0.00,Weather View 32 v70,2013-07-10 09:03:00,
2013-07-10 05:08:00,66.0,-37.5,30.10,ESE,112,0.0,5.0,1,0.00,,,0.00,Weather View 32 v70,2013-07-10 09:08:00,
2013-07-10 05:13:00,66.0,-37.5,30.10,ESE,112,0.0,5.0,1,0.00,,,0.00,Weather View 32 v70,2013-07-10 09:13:00,
2013-07-10 05:18:00,66.0,-37.5,30.10,ESE,112,0.0,5.0,1,0.00,,,0.00,Weather View 32 v70,2013-07-10 09:18:00,
2013-07-10 05:23:00,66.0,-37.5,30.10,ESE,112,1.0,5.0,1,0.00,,,0.00,Weather View 32 v70,2013-07-10 09:23:00,
2013-07-10 05:28:00,66.0,-37.5,30.10,ENE,67,0.0,5.0,1,0.00,,,0.00,Weather View 32 v70,2013-07-10 09:28:00,
2013-07-10 05:33:00,66.0,-37.5,30.10,ENE,67,0.0,5.0,1,0.00,,,0.00,Weather View 32 v70,2013-07-10 09:33:00,
2013-07-10 05:38:00,66.0,-37.5,30.10,NE,45,0.0,5.0,1,0.00,,,0.00,Weather View 32 v70,2013-07-10 09:38:00,
2013-07-10 05:43:00,66.0,-37.5,30.10,North,360,0.0,5.0,1,0.00,,,0.00,Weather View 32 v70,2013-07-10 09:43:00,
2013-07-10 05:48:00,66.0,-37.5,30.10,NNE,22,0.0,5.0,1,0.00,,,0.00,Weather View 32 v70,2013-07-10 09:48:00,
2013-07-10 05:53:00,66.0,-37.5,30.11,NNE,22,0.0,5.0,1,0.00,,,0.00,Weather View 32 v70,2013-07-10 09:53:00,
2013-07-10 05:58:00,66.0,-37.5,30.11,NNE,22,0.0,5.0,1,0.00,,,0.00,Weather View 32 v70,2013-07-10 09:58:00,
2013-07-10 06:03:00,66.0,-37.5,30.11,NNE,22,0.0,5.0,1,0.00,,,0.00,Weather View 32 v70,2013-07-10 10:03:00,
2013-07-10 06:08:00,66.0,-37.5,30.11,NNE,22,0.0,5.0,1,0.00,,,0.00,Weather View 32 v70,2013-07-10 10:08:00,
2013-07-10 06:13:00,66.0,-37.5,30.11,NNE,22,0.0,5.0,1,0.00,,,0.00,Weather View 32 v70,2013-07-10 10:13:00,
2013-07-10 06:18:00,66.0,-37.5,30.10,NNE,22,0.0,5.0,1,0.00,,,0.00,Weather View 32 v70,2013-07-10 10:18:00,
2013-07-10 06:23:00,66.0,-37.5,30.10,NNE,22,0.0,5.0,1,0.00,,,0.00,Weather View 32 v70,2013-07-10 10:23:00,
2013-07-10 06:28:00,66.0,-37.5,30.10,North,360,0.0,5.0,1,0.00,,,0.00,Weather View 32 v70,2013-07-10 10:28:00,
2013-07-10 06:33:00,66.0,-37.5,30.10,North,360,0.0,5.0,1,0.00,,,0.00,Weather View 32 v70,2013-07-10 10:33:00,
2013-07-10 06:38:00,66.0,-37.5,30.10,North,360,0.0,5.0,1,0.00,,,0.00,Weather View 32 v70,2013-07-10 10:38:00,
2013-07-10 06:43:00,66.0,-37.5,30.10,North,360,0.0,3.0,1,0.00,,,0.00,Weather View 32 v70,2013-07-10 10:43:00,
2013-07-10 06:48:00,66.0,-37.5,30.11,North,360,0.0,2.0,1,0.00,,,0.00,Weather View 32 v70,2013-07-10 10:48:00,
2013-07-10 06:53:00,66.0,-37.5,30.10,SSW,202,0.0,2.0,1,0.00,,,0.00,Weather View 32 v70,2013-07-10 10:53:00,
2013-07-10 06:58:00,67.0,-36.9,30.10,SE,135,0.0,3.0,1,0.00,,,0.00,Weather View 32 v70,2013-07-10 10:58:00,
2013-07-10 07:03:00,67.0,-36.9,30.10,ESE,112,0.0,3.0,1,0.00,,,0.00,Weather View 32 v70,2013-07-10 11:03:00,
2013-07-10 07:08:00,67.0,-36.9,30.10,ESE,112,0.0,3.0,1,0.00,,,0.00,Weather View 32 v70,2013-07-10 11:08:00,
2013-07-10 07:13:00,67.0,-36.9,30.10,ESE,112,0.0,3.0,1,0.00,,,0.00,Weather View 32 v70,2013-07-10 11:13:00,
2013-07-10 07:19:00,66.0,-37.5,30.10,ESE,112,0.0,3.0,1,0.00,,,0.00,Weather View 32 v70,2013-07-10 11:19:00,
2013-07-10 07:24:00,67.0,-36.9,30.10,ESE,112,0.0,3.0,1,0.00,,,0.00,Weather View 32 v70,2013-07-10 11:24:00,
2013-07-10 07:29:00,67.0,-36.9,30.10,ESE,112,0.0,3.0,1,0.00,,,0.00,Weather View 32 v70,2013-07-10 11:29:00,
2013-07-10 07:34:00,67.0,-36.9,30.10,ESE,112,0.0,3.0,1,0.00,,,0.00,Weather View 32 v70,2013-07-10 11:34:00,
2013-07-10 07:39:00,67.0,-36.9,30.10,NNE,22,0.0,3.0,1,0.00,,,0.00,Weather View 32 v70,2013-07-10 11:39:00,
2013-07-10 07:44:00,67.0,-36.9,30.10,NNE,22,0.0,3.0,1,0.00,,,0.00,Weather View 32 v70,2013-07-10 11:44:00,
2013-07-10 07:49:00,67.0,-36.9,30.10,SSE,157,0.0,3.0,1,0.00,,,0.00,Weather View 32 v70,2013-07-10 11:49:00,
2013-07-10 07:54:00,67.0,-36.9,30.10,ESE,112,0.0,3.0,1,0.00,,,0.00,Weather View 32 v70,2013-07-10 11:54:00,
2013-07-10 07:59:00,67.0,-36.9,30.10,NNE,22,3.0,3.0,1,0.00,,,0.00,Weather View 32 v70,2013-07-10 11:59:00,
2013-07-10 08:04:00,67.0,-36.9,30.10,NNE,22,0.0,3.0,1,0.00,,,0.00,Weather View 32 v70,2013-07-10 12:04:00,
2013-07-10 08:09:00,67.0,-36.9,30.10,NNE,22,0.0,3.0,1,0.00,,,0.00,Weather View 32 v70,2013-07-10 12:09:00,
2013-07-10 08:14:00,67.0,-36.9,30.09,NNE,22,0.0,3.0,1,0.00,,,0.00,Weather View 32 v70,2013-07-10 12:14:00,
2013-07-10 08:19:00,67.0,-36.9,30.09,NNE,22,3.0,3.0,1,0.00,,,0.00,Weather View 32 v70,2013-07-10 12:19:00,
2013-07-10 08:24:00,68.0,-36.3,30.09,NE,45,0.0,5.0,1,0.00,,,0.00,Weather View 32 v70,2013-07-10 12:24:00,
2013-07-10 08:29:00,68.0,-36.3,30.09,SSW,202,0.0,5.0,1,0.00,,,0.00,Weather View 32 v70,2013-07-10 12:29:00,
2013-07-10 08:34:00,68.0,-36.3,30.09,SSW,202,0.0,5.0,1,0.00,,,0.00,Weather View 32 v70,2013-07-10 12:34:00,
2013-07-10 08:39:00,68.0,-36.3,30.09,NW,315,0.0,5.0,1,0.00,,,0.00,Weather View 32 v70,2013-07-10 12:39:00,
2013-07-10 08:44:00,68.0,-36.3,30.09,SSW,202,0.0,5.0,1,0.00,,,0.00,Weather View 32 v70,2013-07-10 12:44:00,
2013-07-10 08:49:00,68.0,-36.3,30.09,SSW,202,0.0,5.0,1,0.00,,,0.00,Weather View 32 v70,2013-07-10 12:49:00,
2013-07-10 08:54:00,68.0,-36.3,30.09,West,270,0.0,5.0,1,0.00,,,0.00,Weather View 32 v70,2013-07-10 12:54:00,
2013-07-10 08:59:00,68.0,-36.3,30.08,SSW,202,2.0,5.0,1,0.00,,,0.00,Weather View 32 v70,2013-07-10 12:59:00,
2013-07-10 09:04:00,68.0,-36.3,30.08,South,180,0.0,5.0,1,0.00,,,0.00,Weather View 32 v70,2013-07-10 13:04:00,
2013-07-10 09:09:00,69.0,-35.7,30.08,East,90,0.0,5.0,1,0.00,,,0.00,Weather View 32 v70,2013-07-10 13:09:00,
2013-07-10 09:14:00,69.0,-35.7,30.08,East,90,0.0,5.0,1,0.00,,,0.00,Weather View 32 v70,2013-07-10 13:14:00,
2013-07-10 09:19:00,69.0,-35.7,30.08,NE,45,1.0,5.0,1,0.00,,,0.00,Weather View 32 v70,2013-07-10 13:19:00,
2013-07-10 09:24:00,69.0,-35.7,30.07,South,180,1.0,5.0,1,0.00,,,0.00,Weather View 32 v70,2013-07-10 13:24:00,
2013-07-10 09:29:00,69.0,-35.7,30.07,South,180,0.0,5.0,1,0.00,,,0.00,Weather View 32 v70,2013-07-10 13:29:00,
2013-07-10 09:34:00,69.0,-35.7,30.08,SE,135,0.0,5.0,1,0.00,,,0.00,Weather View 32 v70,2013-07-10 13:34:00,
2013-07-10 09:39:00,69.0,-35.7,30.07,South,180,0.0,5.0,1,0.00,,,0.00,Weather View 32 v70,2013-07-10 13:39:00,
2013-07-10 09:44:00,69.0,-35.7,30.07,South,180,0.0,5.0,1,0.00,,,0.00,Weather View 32 v70,2013-07-10 13:44:00,
2013-07-10 09:49:00,70.0,-35.1,30.07,NW,315,0.0,5.0,1,0.00,,,0.00,Weather View 32 v70,2013-07-10 13:49:00,
2013-07-10 09:54:00,70.0,-35.1,30.07,NW,315,0.0,5.0,1,0.00,,,0.00,Weather View 32 v70,2013-07-10 13:54:00,
2013-07-10 10:00:00,70.0,-35.1,30.07,SE,135,0.0,5.0,1,0.00,,,0.00,Weather View 32 v70,2013-07-10 14:00:00,
2013-07-10 10:05:00,71.0,-34.5,30.07,South,180,0.0,5.0,1,0.00,,,0.00,Weather View 32 v70,2013-07-10 14:05:00,
2013-07-10 10:10:00,71.0,-34.5,30.07,SSE,157,0.0,5.0,1,0.00,,,0.00,Weather View 32 v70,2013-07-10 14:10:00,
2013-07-10 10:15:00,71.0,-34.5,30.07,SW,225,0.0,5.0,1,0.00,,,0.00,Weather View 32 v70,2013-07-10 14:15:00,
2013-07-10 10:20:00,71.0,-34.5,30.07,SSE,157,0.0,5.0,1,0.00,,,0.00,Weather View 32 v70,2013-07-10 14:20:00,
2013-07-10 10:25:00,71.0,-34.5,30.07,SW,225,0.0,3.0,1,0.00,,,0.00,Weather View 32 v70,2013-07-10 14:25:00,
2013-07-10 10:30:00,72.0,-33.9,30.07,SSW,202,0.0,4.0,1,0.00,,,0.00,Weather View 32 v70,2013-07-10 14:30:00,
2013-07-10 10:35:00,72.0,-33.9,30.07,SE,135,0.0,5.0,1,0.00,,,0.00,Weather View 32 v70,2013-07-10 14:35:00,
2013-07-10 10:40:00,72.0,-33.9,30.07,SE,135,0.0,5.0,1,0.00,,,0.00,Weather View 32 v70,2013-07-10 14:40:00,
2013-07-10 10:45:00,72.0,-33.9,30.07,South,180,1.0,5.0,1,0.00,,,0.00,Weather View 32 v70,2013-07-10 14:45:00,
2013-07-10 10:50:00,72.0,-33.9,30.07,SSW,202,1.0,5.0,1,0.00,,,0.00,Weather View 32 v70,2013-07-10 14:50:00,
2013-07-10 10:51:00,72.0,-33.9,30.07,SSE,157,1.0,5.0,1,0.00,,,0.00,Weather View 32 v70,2013-07-10 14:51:00,
2013-07-10 10:56:00,73.0,-33.3,30.07,ESE,112,0.0,5.0,1,0.00,,,0.00,Weather View 32 v70,2013-07-10 14:56:00,
2013-07-10 11:01:00,73.0,-33.3,30.07,SSW,202,2.0,5.0,1,0.00,,,0.00,Weather View 32 v70,2013-07-10 15:01:00,
2013-07-10 11:06:00,73.0,-33.3,30.07,SSW,202,0.0,5.0,1,0.00,,,0.00,Weather View 32 v70,2013-07-10 15:06:00,
2013-07-10 11:11:00,73.0,-33.3,30.07,ESE,112,0.0,5.0,1,0.00,,,0.00,Weather View 32 v70,2013-07-10 15:11:00,
2013-07-10 11:16:00,74.0,-32.7,30.07,ESE,112,0.0,5.0,1,0.00,,,0.00,Weather View 32 v70,2013-07-10 15:16:00,
2013-07-10 11:21:00,74.0,-32.7,30.06,SSE,157,4.0,5.0,1,0.00,,,0.00,Weather View 32 v70,2013-07-10 15:21:00,
2013-07-10 11:26:00,75.0,-32.1,30.06,South,180,3.0,5.0,1,0.00,,,0.00,Weather View 32 v70,2013-07-10 15:26:00,
2013-07-10 11:31:00,75.0,-32.1,30.06,SSW,202,0.0,6.0,1,0.00,,,0.00,Weather View 32 v70,2013-07-10 15:31:00,
2013-07-10 11:36:00,76.0,-31.5,30.06,SSE,157,1.0,6.0,1,0.00,,,0.00,Weather View 32 v70,2013-07-10 15:36:00,
2013-07-10 11:41:00,76.0,-31.5,30.06,SSE,157,0.0,6.0,1,0.00,,,0.00,Weather View 32 v70,2013-07-10 15:41:00,
2013-07-10 11:46:00,77.0,-30.9,30.07,East,90,0.0,6.0,1,0.00,,,0.00,Weather View 32 v70,2013-07-10 15:46:00,
2013-07-10 11:51:00,78.0,-30.3,30.07,WSW,247,0.0,6.0,1,0.00,,,0.00,Weather View 32 v70,2013-07-10 15:51:00,
2013-07-10 11:56:00,78.0,-30.3,30.07,SSW,202,0.0,6.0,1,0.00,,,0.00,Weather View 32 v70,2013-07-10 15:56:00,
2013-07-10 12:01:00,79.0,-29.7,30.07,South,180,2.0,6.0,1,0.00,,,0.00,Weather View 32 v70,2013-07-10 16:01:00,
2013-07-10 12:06:00,80.0,-29.1,30.07,ESE,112,0.0,6.0,1,0.00,,,0.00,Weather View 32 v70,2013-07-10 16:06:00,
2013-07-10 12:11:00,80.0,-29.1,30.07,WNW,292,1.0,6.0,1,0.00,,,0.00,Weather View 32 v70,2013-07-10 16:11:00,
2013-07-10 12:16:00,80.0,-29.1,30.06,ESE,112,0.0,6.0,1,0.00,,,0.00,Weather View 32 v70,2013-07-10 16:16:00,
2013-07-10 12:21:00,81.0,-28.5,30.06,NE,45,1.0,8.0,1,0.00,,,0.00,Weather View 32 v70,2013-07-10 16:21:00,
2013-07-10 12:26:00,82.0,-27.9,30.06,SSE,157,0.0,8.0,1,0.00,,,0.00,Weather View 32 v70,2013-07-10 16:26:00,
2013-07-10 12:31:00,83.0,-27.3,30.05,SE,135,1.0,8.0,1,0.00,,,0.00,Weather View 32 v70,2013-07-10 16:31:00,
2013-07-10 12:36:00,84.0,13.2,30.05,WSW,247,0.0,8.0,7,0.00,,,0.00,Weather View 32 v70,2013-07-10 16:36:00,
2013-07-10 12:41:00,85.0,32.1,30.05,South,180,0.0,8.0,15,0.00,,,0.00,Weather View 32 v70,2013-07-10 16:41:00,
2013-07-10 12:46:00,86.0,38.8,30.05,South,180,0.0,8.0,19,0.00,,,0.00,Weather View 32 v70,2013-07-10 16:46:00,
2013-07-10 12:51:00,85.0,46.2,30.05,SE,135,1.0,8.0,26,0.00,,,0.00,Weather View 32 v70,2013-07-10 16:51:00,
2013-07-10 12:56:00,85.0,41.8,30.05,SSW,202,0.0,8.0,22,0.00,,,0.00,Weather View 32 v70,2013-07-10 16:56:00,
2013-07-10 13:01:00,85.0,36.6,30.04,SE,135,0.0,8.0,18,0.00,,,0.00,Weather View 32 v70,2013-07-10 17:01:00,
2013-07-10 13:06:00,86.0,46.0,30.04,SSE,157,3.0,8.0,25,0.00,,,0.00,Weather View 32 v70,2013-07-10 17:06:00,
2013-07-10 13:11:00,86.0,55.1,30.04,SW,225,2.0,8.0,35,0.00,,,0.00,Weather View 32 v70,2013-07-10 17:11:00,
2013-07-10 13:16:00,86.0,51.7,30.04,SE,135,3.0,8.0,31,0.00,,,0.00,Weather View 32 v70,2013-07-10 17:16:00,
2013-07-10 13:21:00,85.0,45.1,30.03,SW,225,1.0,8.0,25,0.00,,,0.00,Weather View 32 v70,2013-07-10 17:21:00,
2013-07-10 13:26:00,85.0,35.2,30.03,ESE,112,1.0,7.0,17,0.00,,,0.00,Weather View 32 v70,2013-07-10 17:26:00,
2013-07-10 13:31:00,85.0,41.8,30.02,SSE,157,0.0,7.0,22,0.00,,,0.00,Weather View 32 v70,2013-07-10 17:31:00,
2013-07-10 13:36:00,85.0,36.6,30.02,SW,225,0.0,7.0,18,0.00,,,0.00,Weather View 32 v70,2013-07-10 17:36:00,
2013-07-10 13:41:00,85.0,36.6,30.02,SE,135,1.0,7.0,18,0.00,,,0.00,Weather View 32 v70,2013-07-10 17:41:00,
2013-07-10 13:46:00,86.0,50.9,30.01,SW,225,1.0,7.0,30,0.00,,,0.00,Weather View 32 v70,2013-07-10 17:46:00,
2013-07-10 13:51:00,86.0,49.9,30.01,ESE,112,0.0,7.0,29,0.00,,,0.00,Weather View 32 v70,2013-07-10 17:51:00,
2013-07-10 13:56:00,86.0,49.0,30.01,SE,135,3.0,7.0,28,0.00,,,0.00,Weather View 32 v70,2013-07-10 17:56:00,
2013-07-10 14:01:00,86.0,49.0,30.01,SSE,157,2.0,7.0,28,0.00,,,0.00,Weather View 32 v70,2013-07-10 18:01:00,
2013-07-10 14:06:00,87.0,46.8,30.01,SSE,157,1.0,7.0,25,0.00,,,0.00,Weather View 32 v70,2013-07-10 18:06:00,
2013-07-10 14:11:00,87.0,50.8,30.01,SE,135,0.0,7.0,29,0.00,,,0.00,Weather View 32 v70,2013-07-10 18:11:00,
2013-07-10 14:16:00,87.0,45.7,30.01,SSE,157,0.0,7.0,24,0.00,,,0.00,Weather View 32 v70,2013-07-10 18:16:00,
2013-07-10 14:21:00,87.0,54.3,30.01,SE,135,6.0,7.0,33,0.00,,,0.00,Weather View 32 v70,2013-07-10 18:21:00,
2013-07-10 14:26:00,86.0,52.6,30.00,SSW,202,2.0,7.0,32,0.00,,,0.00,Weather View 32 v70,2013-07-10 18:26:00,
2013-07-10 14:31:00,86.0,47.0,30.00,SW,225,1.0,7.0,26,0.00,,,0.00,Weather View 32 v70,2013-07-10 18:31:00,
2013-07-10 14:36:00,85.0,36.6,30.00,SW,225,2.0,7.0,18,0.00,,,0.00,Weather View 32 v70,2013-07-10 18:36:00,
2013-07-10 14:41:00,86.0,48.0,30.00,SSE,157,3.0,7.0,27,0.00,,,0.00,Weather View 32 v70,2013-07-10 18:41:00,
2013-07-10 14:46:00,85.0,41.8,29.99,WNW,292,4.0,8.0,22,0.00,,,0.00,Weather View 32 v70,2013-07-10 18:46:00,
2013-07-10 14:51:00,84.0,31.3,29.99,WSW,247,3.0,9.0,15,0.00,,,0.00,Weather View 32 v70,2013-07-10 18:51:00,
2013-07-10 14:56:00,84.0,27.7,29.99,SE,135,1.0,9.0,13,0.00,,,0.00,Weather View 32 v70,2013-07-10 18:56:00,
2013-07-10 15:01:00,85.0,35.2,29.99,SSE,157,3.0,9.0,17,0.00,,,0.00,Weather View 32 v70,2013-07-10 19:01:00,
2013-07-10 15:06:00,85.0,40.6,29.99,SSW,202,6.0,9.0,21,0.00,,,0.00,Weather View 32 v70,2013-07-10 19:06:00,
2013-07-10 15:11:00,84.0,29.6,29.99,South,180,4.0,9.0,14,0.00,,,0.00,Weather View 32 v70,2013-07-10 19:11:00,
2013-07-10 15:16:00,84.0,31.3,29.98,SSW,202,8.0,9.0,15,0.00,,,0.00,Weather View 32 v70,2013-07-10 19:16:00,
2013-07-10 15:22:00,85.0,28.5,29.98,SSW,202,3.0,9.0,13,0.00,,,0.00,Weather View 32 v70,2013-07-10 19:22:00,
2013-07-10 15:27:00,85.0,39.3,29.98,WSW,247,5.0,10.0,20,0.00,,,0.00,Weather View 32 v70,2013-07-10 19:27:00,
2013-07-10 15:32:00,85.0,39.3,29.98,SW,225,0.0,10.0,20,0.00,,,0.00,Weather View 32 v70,2013-07-10 19:32:00,
2013-07-10 15:37:00,85.0,44.1,29.98,West,270,2.0,10.0,24,0.00,,,0.00,Weather View 32 v70,2013-07-10 19:37:00,
2013-07-10 15:42:00,84.0,41.0,29.98,South,180,3.0,10.0,22,0.00,,,0.00,Weather View 32 v70,2013-07-10 19:42:00,
2013-07-10 15:47:00,84.0,42.1,29.97,SE,135,4.0,10.0,23,0.00,,,0.00,Weather View 32 v70,2013-07-10 19:47:00,
2013-07-10 15:52:00,83.0,37.7,29.97,SE,135,0.0,10.0,20,0.00,,,0.00,Weather View 32 v70,2013-07-10 19:52:00,
2013-07-10 15:57:00,83.0,35.0,29.97,South,180,4.0,10.0,18,0.00,,,0.00,Weather View 32 v70,2013-07-10 19:57:00,
2013-07-10 16:02:00,83.0,28.8,29.96,SSW,202,0.0,10.0,14,0.00,,,0.00,Weather View 32 v70,2013-07-10 20:02:00,
2013-07-10 16:07:00,84.0,32.9,29.96,SW,225,0.0,10.0,16,0.00,,,0.00,Weather View 32 v70,2013-07-10 20:07:00,
2013-07-10 16:12:00,84.0,41.0,29.96,South,180,0.0,10.0,22,0.00,,,0.00,Weather View 32 v70,2013-07-10 20:12:00,
2013-07-10 16:17:00,85.0,41.8,29.97,SSE,157,2.0,10.0,22,0.00,,,0.00,Weather View 32 v70,2013-07-10 20:17:00,
2013-07-10 16:22:00,84.0,38.5,29.97,SE,135,5.0,10.0,20,0.00,,,0.00,Weather View 32 v70,2013-07-10 20:22:00,
2013-07-10 16:27:00,83.0,32.1,29.96,SSE,157,9.0,10.0,16,0.00,,,0.00,Weather View 32 v70,2013-07-10 20:27:00,
2013-07-10 16:32:00,83.0,27.0,29.96,SE,135,0.0,10.0,13,0.00,,,0.00,Weather View 32 v70,2013-07-10 20:32:00,
2013-07-10 16:37:00,83.0,25.0,29.95,SSE,157,5.0,10.0,12,0.00,,,0.00,Weather View 32 v70,2013-07-10 20:37:00,
2013-07-10 16:42:00,82.0,8.3,29.95,SSE,157,2.0,10.0,6,0.00,,,0.00,Weather View 32 v70,2013-07-10 20:42:00,
2013-07-10 16:47:00,82.0,-27.9,29.95,SSE,157,0.0,10.0,1,0.00,,,0.00,Weather View 32 v70,2013-07-10 20:47:00,
2013-07-10 16:52:00,82.0,-27.9,29.95,SW,225,3.0,10.0,1,0.00,,,0.00,Weather View 32 v70,2013-07-10 20:52:00,
2013-07-10 16:57:00,82.0,-27.9,29.95,SE,135,4.0,10.0,1,0.00,,,0.00,Weather View 32 v70,2013-07-10 20:57:00,
2013-07-10 17:02:00,82.0,-27.9,29.94,SE,135,2.0,10.0,1,0.00,,,0.00,Weather View 32 v70,2013-07-10 21:02:00,
2013-07-10 17:07:00,82.0,-27.9,29.94,SSE,157,3.0,10.0,1,0.00,,,0.00,Weather View 32 v70,2013-07-10 21:07:00,
2013-07-10 17:12:00,81.0,-28.5,29.94,South,180,2.0,10.0,1,0.00,,,0.00,Weather View 32 v70,2013-07-10 21:12:00,
2013-07-10 17:17:00,81.0,-28.5,29.94,SE,135,0.0,10.0,1,0.00,,,0.00,Weather View 32 v70,2013-07-10 21:17:00,
2013-07-10 17:18:00,81.0,-28.5,29.94,SE,135,0.0,10.0,1,0.00,,,0.00,Weather View 32 v70,2013-07-10 21:18:00,
2013-07-10 17:23:00,80.0,-29.1,29.94,SSW,202,0.0,10.0,1,0.00,,,0.00,Weather View 32 v70,2013-07-10 21:23:00,
2013-07-10 17:27:00,79.0,-29.7,29.93,SSE,157,0.0,10.0,1,0.00,,,0.00,Weather View 32 v70,2013-07-10 21:27:00,
2013-07-10 17:33:00,79.0,-29.7,29.93,SSE,157,2.0,10.0,1,0.00,,,0.00,Weather View 32 v70,2013-07-10 21:33:00,
2013-07-10 17:38:00,78.0,-30.3,29.93,SE,135,1.0,10.0,1,0.00,,,0.00,Weather View 32 v70,2013-07-10 21:38:00,
2013-07-10 17:43:00,78.0,-30.3,29.93,South,180,0.0,10.0,1,0.00,,,0.00,Weather View 32 v70,2013-07-10 21:43:00,
2013-07-10 17:48:00,78.0,-30.3,29.93,WSW,247,5.0,9.0,1,0.00,,,0.00,Weather View 32 v70,2013-07-10 21:48:00,
2013-07-10 17:53:00,78.0,-30.3,29.93,ESE,112,1.0,8.0,1,0.00,,,0.00,Weather View 32 v70,2013-07-10 21:53:00,
2013-07-10 17:58:00,78.0,-30.3,29.93,NNE,22,0.0,8.0,1,0.00,,,0.00,Weather View 32 v70,2013-07-10 21:58:00,
2013-07-10 18:03:00,78.0,-30.3,29.92,SE,135,1.0,8.0,1,0.00,,,0.00,Weather View 32 v70,2013-07-10 22:03:00,
2013-07-10 18:08:00,78.0,-30.3,29.92,SW,225,2.0,8.0,1,0.00,,,0.00,Weather View 32 v70,2013-07-10 22:08:00,
2013-07-10 18:13:00,78.0,-30.3,29.92,SSW,202,1.0,7.0,1,0.00,,,0.00,Weather View 32 v70,2013-07-10 22:13:00,
2013-07-10 18:18:00,78.0,-30.3,29.92,SSW,202,2.0,7.0,1,0.00,,,0.00,Weather View 32 v70,2013-07-10 22:18:00,
2013-07-10 18:23:00,78.0,-30.3,29.92,South,180,0.0,7.0,1,0.00,,,0.00,Weather View 32 v70,2013-07-10 22:23:00,
2013-07-10 18:28:00,78.0,-30.3,29.92,SSE,157,2.0,7.0,1,0.00,,,0.00,Weather View 32 v70,2013-07-10 22:28:00,
2013-07-10 18:33:00,78.0,-30.3,29.92,West,270,3.0,7.0,1,0.00,,,0.00,Weather View 32 v70,2013-07-10 22:33:00,
2013-07-10 18:38:00,78.0,-30.3,29.92,ESE,112,2.0,7.0,1,0.00,,,0.00,Weather View 32 v70,2013-07-10 22:38:00,
2013-07-10 18:43:00,78.0,-30.3,29.91,NNW,337,1.0,7.0,1,0.00,,,0.00,Weather View 32 v70,2013-07-10 22:43:00,
2013-07-10 18:48:00,78.0,-30.3,29.91,ESE,112,0.0,7.0,1,0.00,,,0.00,Weather View 32 v70,2013-07-10 22:48:00,
2013-07-10 18:53:00,77.0,-30.9,29.92,SSE,157,0.0,7.0,1,0.00,,,0.00,Weather View 32 v70,2013-07-10 22:53:00,
2013-07-10 18:58:00,77.0,-30.9,29.92,ESE,112,1.0,7.0,1,0.00,,,0.00,Weather View 32 v70,2013-07-10 22:58:00,
2013-07-10 19:03:00,77.0,-30.9,29.92,SSE,157,0.0,7.0,1,0.00,,,0.00,Weather View 32 v70,2013-07-10 23:03:00,
2013-07-10 19:08:00,77.0,-30.9,29.92,SE,135,0.0,7.0,1,0.00,,,0.00,Weather View 32 v70,2013-07-10 23:08:00,
2013-07-10 19:13:00,77.0,-30.9,29.92,SSE,157,4.0,7.0,1,0.00,,,0.00,Weather View 32 v70,2013-07-10 23:13:00,
2013-07-10 19:18:00,76.0,-31.5,29.92,East,90,0.0,7.0,1,0.00,,,0.00,Weather View 32 v70,2013-07-10 23:18:00,
2013-07-10 19:23:00,76.0,-31.5,29.92,SE,135,0.0,7.0,1,0.00,,,0.00,Weather View 32 v70,2013-07-10 23:23:00,
2013-07-10 19:28:00,76.0,-31.5,29.92,SSW,202,2.0,7.0,1,0.00,,,0.00,Weather View 32 v70,2013-07-10 23:28:00,
2013-07-10 19:33:00,76.0,-31.5,29.92,SE,135,0.0,7.0,1,0.00,,,0.00,Weather View 32 v70,2013-07-10 23:33:00,
2013-07-10 19:38:00,76.0,-31.5,29.93,SSE,157,0.0,7.0,1,0.00,,,0.00,Weather View 32 v70,2013-07-10 23:38:00,
2013-07-10 19:43:00,76.0,-31.5,29.93,SE,135,0.0,7.0,1,0.00,,,0.00,Weather View 32 v70,2013-07-10 23:43:00,
2013-07-10 19:48:00,76.0,-31.5,29.92,SE,135,0.0,7.0,1,0.00,,,0.00,Weather View 32 v70,2013-07-10 23:48:00,
2013-07-10 19:53:00,76.0,-31.5,29.93,ESE,112,0.0,7.0,1,0.00,,,0.00,Weather View 32 v70,2013-07-10 23:53:00,
2013-07-10 19:58:00,76.0,-31.5,29.93,South,180,0.0,7.0,1,0.00,,,0.00,Weather View 32 v70,2013-07-10 23:58:00,
2013-07-10 20:03:00,75.0,-32.1,29.93,South,180,0.0,7.0,1,0.00,,,0.00,Weather View 32 v70,2013-07-11 00:03:00,
2013-07-10 20:08:00,75.0,-32.1,29.93,SSE,157,0.0,7.0,1,0.00,,,0.00,Weather View 32 v70,2013-07-11 00:08:00,
2013-07-10 20:13:00,75.0,-32.1,29.93,SSE,157,2.0,7.0,1,0.00,,,0.00,Weather View 32 v70,2013-07-11 00:13:00,
2013-07-10 20:18:00,75.0,-32.1,29.93,SSE,157,0.0,7.0,1,0.00,,,0.00,Weather View 32 v70,2013-07-11 00:18:00,
2013-07-10 20:23:00,75.0,-32.1,29.93,SE,135,0.0,7.0,1,0.00,,,0.00,Weather View 32 v70,2013-07-11 00:23:00,
2013-07-10 20:28:00,75.0,-32.1,29.93,SSE,157,2.0,7.0,1,0.00,,,0.00,Weather View 32 v70,2013-07-11 00:28:00,
2013-07-10 20:33:00,75.0,-32.1,29.93,South,180,0.0,5.0,1,0.00,,,0.00,Weather View 32 v70,2013-07-11 00:33:00,
2013-07-10 20:38:00,75.0,-32.1,29.93,South,180,0.0,5.0,1,0.00,,,0.00,Weather View 32 v70,2013-07-11 00:38:00,
2013-07-10 20:43:00,75.0,-32.1,29.93,SE,135,0.0,5.0,1,0.00,,,0.00,Weather View 32 v70,2013-07-11 00:43:00,
2013-07-10 20:48:00,75.0,-32.1,29.92,South,180,0.0,5.0,1,0.00,,,0.00,Weather View 32 v70,2013-07-11 00:48:00,
2013-07-10 20:54:00,75.0,-32.1,29.93,ESE,112,0.0,5.0,1,0.00,,,0.00,Weather View 32 v70,2013-07-11 00:54:00,
2013-07-10 20:59:00,75.0,-32.1,29.93,East,90,4.0,5.0,1,0.00,,,0.00,Weather View 32 v70,2013-07-11 00:59:00,
2013-07-10 21:04:00,75.0,-32.1,29.93,SE,135,0.0,5.0,1,0.00,,,0.00,Weather View 32 v70,2013-07-11 01:04:00,
2013-07-10 21:09:00,75.0,-32.1,29.93,SE,135,0.0,5.0,1,0.00,,,0.00,Weather View 32 v70,2013-07-11 01:09:00,
2013-07-10 21:14:00,75.0,-32.1,29.92,SE,135,0.0,5.0,1,0.00,,,0.00,Weather View 32 v70,2013-07-11 01:14:00,
2013-07-10 21:19:00,75.0,-32.1,29.92,SSW,202,0.0,5.0,1,0.00,,,0.00,Weather View 32 v70,2013-07-11 01:19:00,
2013-07-10 21:24:00,75.0,-32.1,29.92,SSW,202,1.0,5.0,1,0.00,,,0.00,Weather View 32 v70,2013-07-11 01:24:00,
2013-07-10 21:29:00,74.0,-32.7,29.92,SSE,157,0.0,5.0,1,0.00,,,0.00,Weather View 32 v70,2013-07-11 01:29:00,
2013-07-10 21:34:00,74.0,-32.7,29.91,SSE,157,0.0,6.0,1,0.00,,,0.00,Weather View 32 v70,2013-07-11 01:34:00,
2013-07-10 21:39:00,74.0,-32.7,29.92,SW,225,0.0,6.0,1,0.00,,,0.00,Weather View 32 v70,2013-07-11 01:39:00,
2013-07-10 21:44:00,74.0,-32.7,29.93,ENE,67,0.0,6.0,1,0.00,,,0.00,Weather View 32 v70,2013-07-11 01:44:00,
2013-07-10 21:49:00,74.0,-32.7,29.93,SE,135,3.0,6.0,1,0.00,,,0.00,Weather View 32 v70,2013-07-11 01:49:00,
2013-07-10 21:54:00,74.0,-32.7,29.92,SSE,157,0.0,7.0,1,0.00,,,0.00,Weather View 32 v70,2013-07-11 01:54:00,
2013-07-10 21:59:00,74.0,-32.7,29.92,ESE,112,0.0,7.0,1,0.00,,,0.00,Weather View 32 v70,2013-07-11 01:59:00,
2013-07-10 22:04:00,74.0,-32.7,29.92,ESE,112,0.0,7.0,1,0.00,,,0.00,Weather View 32 v70,2013-07-11 02:04:00,
2013-07-10 22:09:00,74.0,-32.7,29.92,SSW,202,0.0,7.0,1,0.00,,,0.00,Weather View 32 v70,2013-07-11 02:09:00,
2013-07-10 22:14:00,74.0,-32.7,29.92,NNW,337,1.0,7.0,1,0.00,,,0.00,Weather View 32 v70,2013-07-11 02:14:00,
2013-07-10 22:19:00,74.0,-32.7,29.92,SSW,202,0.0,7.0,1,0.00,,,0.00,Weather View 32 v70,2013-07-11 02:19:00,
2013-07-10 22:24:00,74.0,-32.7,29.93,SSW,202,0.0,7.0,1,0.00,,,0.00,Weather View 32 v70,2013-07-11 02:24:00,
2013-07-10 22:29:00,74.0,-32.7,29.93,NE,45,0.0,7.0,1,0.00,,,0.00,Weather View 32 v70,2013-07-11 02:29:00,
2013-07-10 22:34:00,74.0,-32.7,29.92,NE,45,0.0,7.0,1,0.00,,,0.00,Weather View 32 v70,2013-07-11 02:34:00,
2013-07-10 22:39:00,74.0,-32.7,29.93,ENE,67,0.0,7.0,1,0.00,,,0.00,Weather View 32 v70,2013-07-11 02:39:00,
2013-07-10 22:44:00,74.0,-32.7,29.93,SSE,157,1.0,7.0,1,0.00,,,0.00,Weather View 32 v70,2013-07-11 02:44:00,
2013-07-10 22:49:00,74.0,-32.7,29.93,SE,135,1.0,7.0,1,0.00,,,0.00,Weather View 32 v70,2013-07-11 02:49:00,
2013-07-10 22:54:00,74.0,-32.7,29.92,SE,135,0.0,5.0,1,0.00,,,0.00,Weather View 32 v70,2013-07-11 02:54:00,
2013-07-10 22:59:00,74.0,-32.7,29.92,SE,135,0.0,5.0,1,0.00,,,0.00,Weather View 32 v70,2013-07-11 02:59:00,
2013-07-10 23:04:00,74.0,-32.7,29.92,SSW,202,1.0,5.0,1,0.00,,,0.00,Weather View 32 v70,2013-07-11 03:04:00,
2013-07-10 23:09:00,74.0,-32.7,29.92,SE,135,0.0,5.0,1,0.00,,,0.00,Weather View 32 v70,2013-07-11 03:09:00,
2013-07-10 23:14:00,74.0,-32.7,29.92,South,180,0.0,5.0,1,0.00,,,0.00,Weather View 32 v70,2013-07-11 03:14:00,
2013-07-10 23:19:00,74.0,-32.7,29.92,East,90,0.0,5.0,1,0.00,,,0.00,Weather View 32 v70,2013-07-11 03:19:00,
2013-07-10 23:24:00,74.0,-32.7,29.92,SW,225,0.0,5.0,1,0.00,,,0.00,Weather View 32 v70,2013-07-11 03:24:00,
2013-07-10 23:29:00,74.0,-32.7,29.92,SW,225,0.0,5.0,1,0.00,,,0.00,Weather View 32 v70,2013-07-11 03:29:00,
2013-07-10 23:34:00,74.0,-32.7,29.92,ESE,112,0.0,5.0,1,0.00,,,0.00,Weather View 32 v70,2013-07-11 03:34:00,
2013-07-10 23:39:00,74.0,-32.7,29.92,ESE,112,0.0,5.0,1,0.00,,,0.00,Weather View 32 v70,2013-07-11 03:39:00,
2013-07-10 23:44:00,74.0,-32.7,29.92,SE,135,0.0,5.0,1,0.00,,,0.00,Weather View 32 v70,2013-07-11 03:44:00,
2013-07-10 23:50:00,74.0,-32.7,29.92,SE,135,0.0,5.0,1,0.00,,,0.00,Weather View 32 v70,2013-07-11 03:50:00,
2013-07-10 23:55:00,73.0,-33.3,29.91,SSE,157,0.0,5.0,1,0.00,,,0.00,Weather View 32 v70,2013-07-11 03:55:00,